Simultaneous Nadir Overpasses (SNOs) Predictions

Prediction of SNOs between NOAA-19 and METOP-C Satellite Orbit:

Table of predicted SNOs for the next 14.0 days since TLE Epoch: 12/19/2020
Index Date (NOAA-19) Time (NOAA-19) Lat,Lon (NOAA-19) SZA (NOAA-19 ) Date (METOP-C) Time (METOP-C) Lat,Lon (METOP-C) SZA (METOP-C ) Distance(km) Time Diff (sec)
1 12/21/2020 14:58:16 80.29, -18.61 104.63 12/21/2020 14:59:19 80.30, -18.72 104.65 2.49 63
2 12/21/2020 15:49:17 -80.30, 148.46 75.38 12/21/2020 15:50:00 -80.28, 148.36 75.39 2.72 43
3 12/21/2020 16:40:17 80.30, -44.29 104.63 12/21/2020 16:40:41 80.29, -44.18 104.64 2.12 24
4 12/21/2020 17:31:17 -80.29, 123.11 75.38 12/21/2020 17:31:21 -80.30, 123.22 75.36 2.12 4
5 12/21/2020 18:22:17 80.29, -69.63 104.63 12/21/2020 18:22:03 80.28, -69.65 104.62 1.00 14
6 12/21/2020 19:13:17 -80.28, 97.76 75.37 12/21/2020 19:12:43 -80.29, 97.76 75.38 0.61 34
7 12/21/2020 20:04:17 80.28, -94.97 104.63 12/21/2020 20:03:25 80.27, -95.11 104.60 2.75 52
8 12/21/2020 20:55:17 -80.28, 72.41 75.37 12/21/2020 20:54:05 -80.28, 72.29 75.40 2.28 72
9 01/01/2021 17:02:23 -80.32, 130.33 75.94 01/01/2021 17:03:27 -80.31, 130.30 75.94 1.45 64
10 01/01/2021 17:53:25 80.31, -62.21 104.06 01/01/2021 17:54:08 80.31, -62.39 104.06 3.45 43
11 01/01/2021 18:44:23 -80.31, 104.98 75.95 01/01/2021 18:44:49 -80.30, 104.83 75.96 3.05 26
12 01/01/2021 19:35:26 80.32, -87.89 104.05 01/01/2021 19:35:30 80.30, -87.86 104.04 2.44 4
13 01/01/2021 20:26:23 -80.30, 79.62 75.95 01/01/2021 20:26:10 -80.31, 79.69 75.94 1.67 13
14 01/01/2021 21:17:26 80.31,-113.23 104.05 01/01/2021 21:16:52 80.29,-113.32 104.01 3.08 34
15 01/01/2021 22:08:23 -80.29, 54.27 75.96 01/01/2021 22:07:32 -80.30, 54.22 75.97 1.40 51



Historial Predications of SNOs between NOAA-19 and METOP-C
